Location: Apollinopolis Magna
(24.9792°N, 32.8772°E)
Time: 04:22:21
(UTC+00:00)

Cosmos 1486 Rocket - Pass Details

Date: 02 March 2021
Orbit: 758 x 784 km, 74.1° (Epoch: 12 April)

Event Time Altitude Azimuth Distance (km) Brightness Sun altitude
Rises 16:53:52 0° 351° (N) 3,251 7.4 -15.0°
Reaches altitude 10° 16:56:18 10° 356° (N) 2,326 6.5 -15.5°
Maximum altitude 17:01:29 55° 74° (ENE) 931 4.1 -16.7°
Drops below altitude 10° 17:06:40 10° 151° (SSE) 2,329 6.2 -17.9°
Enters shadow 17:08:10 - 155° (SSE) 2,902 6.7 -18.2°
